Location: Grasslands National Park East Block
(49.0708°N, 106.5295°W)
Time: 18:27:21
(UTC-06:00)

Vanguard 1 Rocket - Pass Details

Date: 01 October 2019
Orbit: 650 x 4226 km, 34.3° (Epoch: 13 October)

Event Time Altitude Azimuth Distance (km) Brightness Sun altitude
Rises 12:26:30 0° 176° (S) 7,547 13.0 37.3°
Reaches altitude 10° 12:34:53 10° 158° (SSE) 7,043 13.1 37.4°
Maximum altitude 12:47:20 17° 128° (SE) 6,831 12.5 37.6°
Drops below altitude 10° 12:59:58 10° 98° (E) 7,283 12.2 37.6°
Sets 13:08:37 0° 81° (E) 7,934 12.1 37.6°
